This demonstration page uses our WeatherBlox Daily Observations layout. Learn more.

Hourly Observations for February 10, 2017

Temp ( °F °C ) Dew Point ( °F °C ) Humidity (%) Winds ( mph kmh ) Pressure ( in mb ) Visibility ( mi km ) Precip ( " mm )
12:15 am 00:15 Mostly Cloudy 25 -4 10 -12 54 54 NW 12 19 30.3 1026 10 16.09344 0 0
12:35 am 00:35 Cloudy 25 -4 10 -12 54 54 NW 13 20 30.3 1026 10 16.09344 0 0
12:55 am 00:55 Cloudy 25 -4 12 -11 59 59 NW 14 22 30.33 1027 10 16.09344 0 0
1:15 am 01:15 Mostly Cloudy 25 -4 12 -11 59 59 NW 17 28 30.3 1026 10 16.09344 0 0
1:35 am 01:35 Partly Cloudy 25 -4 12 -11 59 59 NW 22 35 30.33 1027 10 16.09344 0 0
1:55 am 01:55 Mostly Cloudy 23 -5 12 -11 63 63 NW 16 26 30.33 1027 10 16.09344 0 0
2:15 am 02:15 Partly Cloudy 23 -5 12 -11 63 63 NW 12 19 30.33 1027 10 16.09344 0 0
2:35 am 02:35 Partly Cloudy 23 -5 12 -11 63 63 NW 14 22 30.33 1027 10 16.09344 0 0
2:55 am 02:55 Clear 23 -5 12 -11 63 63 NW 10 17 30.33 1027 10 16.09344 0 0
3:15 am 03:15 Clear 23 -5 12 -11 63 63 NW 14 22 30.33 1027 10 16.09344 0 0
3:35 am 03:35 Clear 23 -5 12 -11 63 63 NW 13 20 30.33 1027 10 16.09344 0 0
3:55 am 03:55 Clear 23 -5 12 -11 63 63 NNW 12 19 30.36 1028 10 16.09344 0 0
4:15 am 04:15 Clear 23 -5 12 -11 63 63 NW 7 11 30.36 1028 10 16.09344 0 0
4:35 am 04:35 Clear 23 -5 12 -11 63 63 NNW 6 9 30.36 1028 10 16.09344 0 0
4:55 am 04:55 Clear 23 -5 12 -11 63 63 NNW 8 13 30.36 1028 10 16.09344 0 0
5:15 am 05:15 Clear 23 -5 12 -11 63 63 NNW 10 17 30.36 1028 10 16.09344 0 0
5:35 am 05:35 Clear 23 -5 12 -11 63 63 NNW 10 17 30.39 1029 10 16.09344 0 0
5:55 am 05:55 Clear 23 -5 12 -11 63 63 NW 10 17 30.39 1029 10 16.09344 0 0
6:15 am 06:15 Clear 25 -4 14 -10 63 63 NW 12 19 30.39 1029 10 16.09344 0 0
6:35 am 06:35 Clear 23 -5 14 -10 68 68 WNW 10 17 30.39 1029 10 16.09344 0 0
6:55 am 06:55 Clear 23 -5 14 -10 68 68 W 3 6 30.42 1030 10 16.09344 0 0
7:15 am 07:15 Sunny 25 -4 14 -10 63 63 WSW 6 9 30.42 1030 10 16.09344 0 0
7:35 am 07:35 Sunny 25 -4 14 -10 63 63 W 12 19 30.42 1030 10 16.09344 0 0
7:55 am 07:55 Sunny 25 -4 14 -10 63 63 W 8 13 30.42 1030 10 16.09344 0 0
8:15 am 08:15 Sunny 25 -4 12 -11 59 59 W 3 6 30.45 1031 10 16.09344 0 0
8:35 am 08:35 Sunny 27 -3 12 -11 54 54 W 7 11 30.45 1031 10 16.09344 0 0
8:55 am 08:55 Sunny 28 -2 12 -11 51 51 W 3 6 30.42 1030 10 16.09344 0 0
9:15 am 09:15 Sunny 28 -2 12 -11 51 51 W 5 7 30.45 1031 10 16.09344 0 0
9:35 am 09:35 Sunny 28 -2 12 -11 51 51 W 10 17 30.45 1031 10 16.09344 0 0
9:55 am 09:55 Sunny 30 -1 12 -11 47 47 undefined N/A 30.45 1031 10 16.09344 0 0
10:15 am 10:15 Sunny 30 -1 14 -10 51 51 undefined N/A 30.45 1031 10 16.09344 0 0
10:35 am 10:35 Sunny 32 0 12 -11 44 44 undefined N/A 30.45 1031 10 16.09344 0 0
10:55 am 10:55 Sunny 32 0 12 -11 44 44 undefined N/A 30.45 1031 10 16.09344 0 0
11:15 am 11:15 Sunny 32 0 12 -11 44 44 undefined N/A 30.42 1030 10 16.09344 0 0
11:35 am 11:35 Sunny 32 0 12 -11 44 44 undefined N/A 30.42 1030 10 16.09344 0 0
11:55 am 11:55 Sunny 34 1 12 -11 41 41 undefined N/A 30.39 1029 10 16.09344 0 0
12:15 pm 12:15 Sunny 34 1 12 -11 41 41 undefined N/A 30.36 1028 10 16.09344 0 0
12:35 pm 12:35 Sunny 34 1 12 -11 41 41 undefined N/A 30.36 1028 10 16.09344 0 0
12:55 pm 12:55 Mostly Cloudy 34 1 12 -11 41 41 undefined N/A 30.36 1028 10 16.09344 0 0
1:15 pm 13:15 Cloudy 34 1 12 -11 41 41 undefined N/A 30.36 1028 10 16.09344 0 0
1:35 pm 13:35 Cloudy 34 1 14 -10 44 44 undefined N/A 30.33 1027 10 16.09344 0 0
1:55 pm 13:55 Cloudy 34 1 12 -11 41 41 undefined N/A 30.33 1027 10 16.09344 0 0
2:15 pm 14:15 Cloudy 34 1 12 -11 41 41 undefined N/A 30.33 1027 10 16.09344 0 0
2:35 pm 14:35 Cloudy 36 2 12 -11 38 38 undefined N/A 30.3 1026 10 16.09344 0 0
2:55 pm 14:55 Cloudy 36 2 12 -11 38 38 undefined N/A 30.3 1026 10 16.09344 0 0
3:15 pm 15:15 Cloudy 36 2 14 -10 41 41 undefined N/A 30.3 1026 10 16.09344 0 0
3:35 pm 15:35 Cloudy 36 2 12 -11 38 38 undefined N/A 30.3 1026 10 16.09344 0 0
3:55 pm 15:55 Cloudy 36 2 14 -10 41 41 undefined N/A 30.27 1025 10 16.09344 0 0
4:15 pm 16:15 Cloudy 36 2 14 -10 41 41 undefined N/A 30.27 1025 10 16.09344 0 0
4:35 pm 16:35 Cloudy 36 2 14 -10 41 41 undefined N/A 30.27 1025 10 16.09344 0 0
4:55 pm 16:55 Cloudy 36 2 14 -10 41 41 undefined N/A 30.24 1024 10 16.09344 0 0
5:15 pm 17:15 Cloudy 36 2 14 -10 41 41 undefined N/A 30.24 1024 10 16.09344 0 0
5:35 pm 17:35 Mostly Cloudy 36 2 14 -10 41 41 undefined N/A 30.21 1023 10 16.09344 0 0
5:55 pm 17:55 Partly Cloudy 36 2 14 -10 41 41 undefined N/A 30.21 1023 10 16.09344 0 0
6:15 pm 18:15 Partly Cloudy 36 2 12 -11 38 38 undefined N/A 30.21 1023 10 16.09344 0 0
6:35 pm 18:35 Clear 34 1 12 -11 41 41 undefined N/A 30.21 1023 10 16.09344 0 0
6:55 pm 18:55 Clear 34 1 12 -11 41 41 undefined N/A 30.18 1022 10 16.09344 0 0
7:15 pm 19:15 Mostly Cloudy 34 1 12 -11 41 41 undefined N/A 30.18 1022 10 16.09344 0 0
7:35 pm 19:35 Cloudy 34 1 12 -11 41 41 undefined N/A 30.18 1022 10 16.09344 0 0
7:55 pm 19:55 Mostly Cloudy 34 1 14 -10 44 44 undefined N/A 30.18 1022 10 16.09344 0 0
8:15 pm 20:15 Mostly Cloudy 34 1 14 -10 44 44 undefined N/A 30.18 1022 10 16.09344 0 0
8:35 pm 20:35 Partly Cloudy 34 1 14 -10 44 44 undefined N/A 30.18 1022 10 16.09344 0 0
8:55 pm 20:55 Clear 34 1 14 -10 44 44 undefined N/A 30.15 1021 10 16.09344 0 0
9:15 pm 21:15 Partly Cloudy 34 1 14 -10 44 44 undefined N/A 30.12 1020 10 16.09344 0 0
9:35 pm 21:35 Clear 36 2 14 -10 41 41 undefined N/A 30.12 1020 10 16.09344 0 0
9:55 pm 21:55 Clear 36 2 14 -10 41 41 undefined N/A 30.09 1019 10 16.09344 0 0
10:15 pm 22:15 Clear 36 2 14 -10 41 41 undefined N/A 30.09 1019 10 16.09344 0 0
10:35 pm 22:35 Partly Cloudy 36 2 14 -10 41 41 undefined N/A 30.06 1018 10 16.09344 0 0
10:55 pm 22:55 Partly Cloudy 36 2 14 -10 41 41 undefined N/A 30.06 1018 10 16.09344 0 0
11:15 pm 23:15 Clear 36 2 14 -10 41 41 undefined N/A 30.06 1018 10 16.09344 0 0
11:35 pm 23:35 Clear 36 2 16 -9 44 44 undefined N/A 30.06 1018 10 16.09344 0 0
11:55 pm 23:55 Clear 36 2 16 -9 44 44 undefined N/A 30.06 1018 10 16.09344 0 0

Powered by AerisWeather